[Iaude] MPEC G152: 2024 GE3 [a=1.01,e=0.25,i=1.8,H=26.1]
    mpec at cfa.harvard.edu 
    mpec at cfa.harvard.edu
       
    Thu Apr 11 07:20:04 EDT 2024
    
    
  
M.P.E.C. 2024-G152                               Issued 2024 April 11, 11:18 UT
     The Minor Planet Electronic Circulars contain information on unusual
         minor planets, routine data on comets and natural satellites,
         and occasional editorial announcements.  They are published
    on behalf of Division F of the International Astronomical Union by the
          Minor Planet Center, Smithsonian Astrophysical Observatory,
                          Cambridge, MA 02138, U.S.A.
			  
             Prepared using the Tamkin Foundation Computer Network
                              MPC at CFA.HARVARD.EDU
            URL https://www.minorplanetcenter.net/    ISSN 1523-6714
                                    2024 GE3                                    
Observations:
     K24G03E*1C2024 04 10.26263510 19 30.108+14 49 36.34         19.78GVEG152G96
     K24G03E 1C2024 04 10.26774810 19 21.839+14 50 43.80         20.09GVEG152G96
     K24G03E 1C2024 04 10.27286910 19 13.660+14 51 51.52         20.62GVEG152G96
     K24G03E 1C2024 04 10.27799810 19 05.358+14 53 00.28         20.88GVEG152G96
     K24G03E KC2024 04 10.30072710 18 29.239+14 57 57.35         20.23GVEG152I52
     K24G03E KC2024 04 10.30187110 18 27.414+14 58 12.50         20.41GVEG152I52
     K24G03E KC2024 04 10.30301410 18 25.592+14 58 26.98         19.97GVEG152I52
     K24G03E KC2024 04 10.30416110 18 23.753+14 58 42.42         19.97GVEG152I52
     K24G03E KC2024 04 10.36025610 16 54.780+15 10 58.00               VEG152I52
     K24G03E KC2024 04 10.36140610 16 53.000+15 11 12.70         20.07GVEG152I52
     K24G03E KC2024 04 10.36256710 16 51.160+15 11 28.20         20.38GVEG152I52
     K24G03E KC2024 04 10.36372910 16 49.340+15 11 43.30         19.86GVEG152I52
     K24G03E KB2024 04 10.87455810 03 28.76 +17 08 53.8          19.7 GXEG152958
     K24G03E KB2024 04 10.87867410 03 21.50 +17 09 51.2          19.9 GXEG152958
     K24G03E KB2024 04 10.88280110 03 14.25 +17 10 48.1          20.2 GXEG152958
     K24G03E KB2024 04 10.92667910 01 56.20 +17 20 57.4          20.1 GXEG152I93
     K24G03E KB2024 04 10.93312710 01 44.73 +17 22 27.4          19.7 GXEG152I93
     K24G03E 1C2024 04 10.99764 09 59 50.00 +17 36 46.4          20.4 VXEG152033
     K24G03E 1C2024 04 10.99816 09 59 49.10 +17 36 53.7          21.0 VXEG152033
     K24G03E 1C2024 04 10.99868 09 59 48.18 +17 37 00.3          20.1 VXEG152033
     K24G03E KC2024 04 11.12608209 56 23.94 +18 09 01.8          20.2 GXEG152858
     K24G03E KC2024 04 11.13260509 56 11.82 +18 10 35.5          19.9 GXEG152858
     K24G03E KC2024 04 11.13955509 55 58.91 +18 12 15.4          20.1 GXEG152858
Observer details:
033 Karl Schwarzschild Observatory, Tautenburg.  Observers S. Melnikov, C.
    Hogner, F. Ludwig, M. Hartmann, B. Stecklum.  Measurer B. Stecklum.
    1.34-m f/3 Schmidt + CCD.
858 Tebbutt Observatory, Edgewood.  Observer F. B. Zoltowski.  0.51-m f/8.1
    Schmidt-Cassegrain + CCD.
958 Observatoire de Dax.  Observer P. Dupouy.  0.50-m f/4.5 Reflector + CMO.
G96 Mt. Lemmon Survey.  Observer A. D. Grauer.  Measurers T. Beuden, V. F.
    Carvajal, D. Fay, J. B. Fazekas, D. C. Fuls, A. R. Gibbs, A. D. Grauer, H.
    Groeller, J. K. Hogan, R. A. Kowalski, S. M. Larson, G. J. Leonard, D.
    Rankin, R. L. Seaman, F. C. Shelly, K. W. Wierzchos.  1.5-m reflector +
    10K CCD.
I52 Steward Observatory, Mt. Lemmon Station.  Observer G. J. Leonard.
    Measurers T. Beuden, V. F. Carvajal, D. Fay, J. B. Fazekas, D. C. Fuls, A.
    R. Gibbs, A. D. Grauer, H. Groeller, J. K. Hogan, R. A. Kowalski, S. M.
    Larson, G. J. Leonard, D. Rankin, R. L. Seaman, F. C. Shelly, K. W.
    Wierzchos.  1.0-m prime focus + CCD.
I93 St Pardon de Conques.  Observer F. Losse.  0.40-m f/3.7 reflector + CCD.
Orbital elements:
2024 GE3                                                 Earth MOID = 0.0043 AU
Epoch 2024 Mar. 31.0 TT = JDT 2460400.5                 Veres                   
M 272.86964              (2000.0)            P               Q                  
n   0.96507489     Peri.  110.12216     +0.58081801     +0.81399075             
a   1.0141341      Node   195.39459     -0.75809987     +0.53715013             
e   0.2523694      Incl.    1.79955     -0.29653840     +0.22110811             
P   1.02           H   26.17          G   0.15           U   7                  
Residuals in seconds of arc
240410 G96 (1.4+  0.3-)   240410 I52  0.2-  0.3-    240410 I93  0.5-  0.4-
240410 G96  0.0   0.2-    240410 I52  0.2+  0.7-    240410 033  0.2+  0.4-
240410 G96  0.0   0.1+    240410 I52  0.1+  0.4-    240410 033  0.4+  0.3-
240410 G96 (1.6-  1.4+)   240410 I52  0.2+  0.5-    240410 033  0.2+  0.9-
240410 I52  0.5+  0.3-    240410 958  0.4-  1.4+    240411 858  0.0   0.1+
240410 I52  0.4+  0.1-    240410 958  0.1-  1.0+    240411 858  0.2-  0.0
240410 I52  0.4+  0.7-    240410 958  0.7+  0.0     240411 858  0.1-  0.2+
240410 I52  0.2+  0.3-    240410 I93  0.2-  0.4-
Ephemeris:
2024 GE3                 a,e,i = 1.01, 0.25, 2                   q = 0.7582
Date    TT    R. A. (2000) Decl.     Delta      r    Elong.  Phase     V
2024 03 12    13 01 29.1 -11 26 54   0.1566  1.1351   152.7    23.7    23.5
...
2024 03 27    12 37 40.1 -07 50 46   0.08288 1.0802   173.7     5.8    21.4
...
2024 04 04    11 54 43.3 -00 42 34   0.04955 1.0480   164.6    14.6    20.6
...
2024 04 10    10 26 03.9 +13 53 22   0.03040 1.0227   132.8    46.0    20.4
2024 04 11    09 59 59.2 +17 40 29   0.02832 1.0185   124.5    54.2    20.4
2024 04 12    09 29 08.6 +21 41 25   0.02678 1.0141   115.3    63.3    20.6
...
2024 04 18    05 37 45.1 +34 32 59   0.03097 0.9880    57.9   120.6    23.5
...
2024 04 26    03 19 17.8 +28 29 40   0.05791 0.9525    21.3   157.5    30.0
...
2024 05 11    02 21 59.9 +22 00 50   0.1268  0.8866    12.5   165.7    35.0
M. P. C. Staff               (C) Copyright 2024 MPC           M.P.E.C. 2024-G152
    
    
More information about the Iaude
mailing list